Regional Weather Roundup
Issued by NWS Albany, NY

Home | Current Version | Previous Version | Graphics & Text | Print | Product List | Glossary On
Versions: 1 2 3 4 5 6 7 8 9 10 11 12 13 14 15 16 17 18 19 20 21 22 23 24 25 26 27
000
ASUS41 KALY 230210
RWRALY

NEW YORK STATE HOURLY WEATHER ROUNDUP
NATIONAL WEATHER SERVICE ALBANY NY
1000 PM EDT SAT JUL 22 2017

NOTE: "FAIR" INDICATES FEW OR NO CLOUDS BELOW 12,000 FEET WITH NO
SIGNIFICANT WEATHER AND/OR NO OBSTRUCTIONS TO VISIBILITY.

NYZ032-033-038>043-046>054-057>066-NYZ062>081-082-084-230300-
EAST


CITY           SKY/WX    TMP DP  RH WIND       PRES   REMARKS
ALBANY         NOT AVBL
GLENS FALLS    CLOUDY    70  62  76 NE3       29.81R
POUGHKEEPSIE   CLOUDY    72  66  81 N6        29.77R
NEWBURGH       MOCLDY    75  66  73 SE7       29.80S
MONTGOMERY     MOCLDY    73  68  84 W3        29.79R
WHITE PLAINS   PTCLDY    75  66  73 SE3       29.79S
ISLIP          LGT RAIN  79  70  74 S7        29.78S
NEW YORK CITY  CLOUDY    79  75  87 S10       29.76F
CENTRAL PARK   CLOUDY    79  72  79 VRB5      29.80S
$$

NYZ005>009-017-018-044>046-055-056-230300-
CENTRAL


CITY           SKY/WX    TMP DP  RH WIND       PRES   REMARKS
FULTON         CLOUDY    66  64  93 CALM      29.82R
SYRACUSE       CLOUDY    69  65  86 CALM      29.82R
ROME           CLOUDY    68  66  93 CALM      29.83R
ELMIRA         CLOUDY    73  68  84 CALM      29.81R
BINGHAMTON     CLOUDY    69  60  73 E5        29.84R
$$

NYZ026>034-041>043-087-230300-
NORTH


CITY           SKY/WX    TMP DP  RH WIND       PRES   REMARKS
WATERTOWN      CLOUDY    67  66  97 CALM      29.82R
FORT DRUM      NOT AVBL
OGDENSBURG     FAIR      67  64  89 CALM      29.83R
MASSENA        MOCLDY    67  63  87 CALM      29.83S
SARANAC LAKE   PTCLDY    61  60  97 CALM      29.87R
PLATTSBURGH    PTCLDY    64  60  87 W5        29.83R
$$

NYZ001>004-010>016-019>021-085-230300-
WEST


CITY           SKY/WX    TMP DP  RH WIND       PRES   REMARKS
NIAGARA FALLS  CLOUDY    72  64  76 NE7       29.80S
BUFFALO        CLOUDY    69  65  86 NE8       29.80S
DUNKIRK        CLOUDY    72  69  90 CALM      29.79S
JAMESTOWN      CLOUDY    66  63  88 S8        29.84S
WELLSVILLE     CLOUDY    70  64  81 E3        29.89R
ROCHESTER      CLOUDY    73  65  75 SE3       29.82R
PENN YAN       CLOUDY    70  63  78 CALM      29.84R
$$

             KEY
       WCI = WIND CHILL INDEX
       VSB = VISIBILITY
       HX  = HEAT INDEX
$$




USA.gov is the U.S. government's official web portal to all federal, state and local government web resources and services.